SCP
0 0 -0 -0 0 0 0 0 0 0 0 0 0 0 0 0 0 0 0 0 0 0 0 0 0 0 0 0 0 0 0 0 0 0 0 0 0 0 0 0 0 0 0 0
-0 -0 -0 -0 0 0 0 0 0 0 0 0 0 0 0 0 0 0 0 0 0 0 0 0 0 0 0 0 0 0 0 0 0 0 0 0 0 0 0 0 0 0 0 0
0 -0 0 0 0 0 0 0 0 0 0 0 0 0 0 0 0 0 0 0 0 0 0 0 0 0 0 0 0 0 0 0 0 0 0 0 0 0 0 0 0 0 0 0
0 0 0 0 0 0 0 0 0 0 0 0 0 0 0 0 0 0 0 0 0 0 0 0 0 0 0 0 0 0 0 0 0 0 0 0 0 0 0 0 0 0 0 0
0 0 0 0 0 0 0 0 0 0 0 0 0 0 0 0 0 0 0 0 0 0 0 0 0 0 0 0 0 0 0 0 0 0 0 0 0 0 0 0 0 0 0 0
0 0 0 0 0 1 0 0 0 0 0 0 0 0 0 0 0 0 0 0 0 0 0 0 0 0 0 0 0 0 0 0 0 0 0 0 0 0 0 0 0 0 0 0
0 0 0 0 0 0 0 0 0 0 0 0 0 0 0 0 0 0 0 0 0 0 0 0 0 0 0 0 0 0 0 0 0 0 0 0 0 0 0 0 0 0 0 0
0 0 0 0 0 0 0 0 0 0 0 0 0 0 0 0 0 0 0 0 0 0 0 0 0 0 0 0 0 0 0 0 0 0 0 0 0 0 0 0 0 0 0 0
0 0 0 0 0 0 0 0 0 0 0 -0 0 0 0 0 0 0 0 0 0 0 0 0 0 0 0 0 0 0 0 0 0 0 0 0 0 0 0 0 0 0 0 0
0 0 0 0 0 0 0 0 0 0 -0 0 -0 -0 -0 -0 -0 0 0 0 0 0 0 0 0 0 0 0 0 0 0 0 0 0 0 0 0 0 0 0 0 0 0 0
0 0 0 0 0 0 0 0 0 0 0 -0 0 0 0 0 0 0 0 0 0 0 0 0 0 0 0 0 0 0 0 0 0 0 0 0 0 0 0 0 0 0 0 0
0 0 0 0 0 0 -0 0 0 0 0 0 0 0 0 -0 0 0 0 0 0 0 0 0 0 0 0 0 0 0 0 0 0 0 0 0 0 0 0 0 -0 -0 0 0
0 0 0 0 0 -0 -0 -0 0 0 0 0 0 0 -0 -0 0 0 0 0 0 0 0 0 0 0 0 0 0 0 0 0 0 0 0 0 0 0 0 0 0 -0 -0 -0
0 0 0 0 0 0 -0 -0 0 0 0 0 0 -0 -0 0 0 0 0 0 0 0 0 0 0 0 0 0 0 0 0 0 0 0 0 0 0 0 0 0 0 0 0 0
0 0 0 0 0 -0 0 0 0 0 0 0 -0 0 0 0 0 0 0 0 0 0 0 0 0 0 0 0 0 0 0 0 0 0 0 0 0 0 0 0 0 0 0 0
-0 -0 -0 0 0 0 0 0 0 -0 -0 -0 0 0 0 0 0 0 0 0 0 0 0 0 0 0 0 0 0 0 0 0 0 0 0 0 0 0 0 0 0 0 0 0
-0 -0 -0 0 0 0 0 0 -0 -0 0 0 0 0 0 0 0 0 0 0 0 0 0 0 0 0 0 0 0 0 0 0 0 0 0 0 0 0 0 0 0 0 0 0
0 0 0 0 -0 0 0 0 0 0 0 0 0 0 0 0 0 0 0 0 0 0 0 0 0 0 0 0 0 0 0 0 0 0 0 0 0 0 0 0 0 0 0 0
-0 -0 -0 -0 -0 -0 -0 -0 0 0 0 0 0 0 0 0 0 0 0 0 0 0 0 0 0 0 0 0 0 0 0 0 0 0 0 0 0 0 0 0 0 0 0 0
-0 -0 -0 -0 -0 -0 0 0 0 0 0 0 0 0 0 0 0 0 0 0 0 0 0 0 0 0 0 0 0 0 0 0 0 0 0 0 0 0 0 0 0 0 0 0
-0 -0 -0 -0 -0 0 0 0 0 0 0 0 0 0 0 0 0 0 0 0 0 0 0 0 0 0 0 0 0 0 0 0 0 0 0 0 0 0 0 0 0 0 0 0
-0 -0 -0 -0 0 0 0 0 0 0 0 0 0 0 0 0 0 0 0 0 0 0 0 0 0 0 0 0 0 0 0 0 0 0 0 0 0 0 0 0 0 0 0 0
-0 -0 0 0 0 0 0 0 0 0 0 0 0 0 0 0 0 0 0 0 0 0 0 0 0 0 -0 0 0 0 0 0 0 0 0 0 0 0 0 0 0 0 0 0
-0 0 0 0 0 0 0 0 0 0 0 0 0 0 0 0 0 0 0 0 0 0 0 0 0 -0 -0 0 0 0 0 0 0 0 0 0 0 0 0 0 0 0 0 0
0 0 0 0 0 -0 -0 -0 -0 -0 0 0 0 0 0 0 0 0 0 0 0 0 0 0 -0 -0 0 0 0 0 0 0 0 0 0 0 0 0 0 0 0 0 0 0
-0 -0 0 0 -0 -0 -0 -0 -0 0 0 0 0 0 0 0 0 0 0 0 0 0 0 0 0 0 0 0 0 0 0 0 0 0 0 0 0 0 0 0 0 0 0 0
-0 -0 -0 -0 0 0 0 0 0 0 0 0 0 0 0 0 0 0 0 0 0 0 0 0 0 0 0 0 0 0 0 0 0 0 0 0 0 0 0 0 0 0 0 0
Wind_Speed_500mb
18 36 48 56 57 53 33 25 29 41 45 41 40 40 48 59 60 60 56 51 49 47 44 41 36 33 29 26 22 18 15 11 10 12 14 16 19 20 20 19 16 18 19 20
20 33 46 52 50 44 32 3 13 50 42 37 50 59 54 54 58 58 54 50 47 44 39 35 30 26 22 18 15 13 13 14 14 14 15 17 20 18 14 13 16 16 17 18
14 43 26 25 47 46 22 5 35 46 36 49 40 39 48 54 51 51 49 46 41 37 32 27 23 20 18 15 15 14 14 14 14 15 15 16 14 12 11 11 13 16 17 19
24 24 8 20 30 33 13 17 16 47 43 43 47 54 50 45 49 46 42 41 35 29 25 21 18 16 15 15 14 14 15 15 15 13 12 12 8 7 8 9 13 18 22 23
10 11 36 23 40 36 22 7 35 50 46 65 66 68 40 39 41 41 36 32 26 24 20 18 15 14 13 14 13 13 14 15 14 12 10 8 7 7 9 10 14 19 21 21
21 17 7 22 22 17 10 7 23 53 59 60 75 25 16 38 40 38 31 26 25 21 19 15 12 12 13 14 12 12 13 15 13 10 8 7 6 7 10 11 13 17 17 17
16 9 12 22 31 15 20 18 38 58 61 61 19 35 58 46 40 33 29 23 20 18 12 11 9 10 12 11 9 12 13 12 11 8 8 6 7 8 9 10 11 16 18 16
6 10 10 47 18 4 12 54 60 62 55 56 72 70 56 47 39 33 31 24 18 14 12 11 11 15 15 13 13 13 10 9 9 10 7 4 7 8 8 8 11 17 22 15
12 7 10 23 20 27 40 57 57 58 60 70 66 62 50 45 35 30 25 21 17 15 15 15 15 14 13 13 14 12 11 9 8 7 7 4 6 7 7 7 12 17 23 27
5 19 25 31 45 43 47 55 56 56 58 61 69 55 49 41 34 30 26 23 20 19 17 16 15 15 13 12 14 12 9 9 6 3 4 2 3 6 5 8 13 17 22 26
13 16 31 43 40 46 57 59 64 61 66 64 62 55 44 40 34 30 27 24 21 20 19 17 16 16 14 14 14 12 13 11 7 4 6 5 6 2 6 9 16 22 24 27
7 26 36 26 42 46 64 72 74 74 63 54 52 47 40 39 34 29 26 24 24 22 20 17 15 14 15 17 17 16 11 11 9 4 4 6 2 4 12 18 19 23 25 29
16 59 65 64 62 58 72 68 57 55 51 53 45 41 39 38 32 32 29 25 23 20 17 15 15 16 17 17 18 18 17 14 12 8 3 2 3 4 2 20 24 26 25 27
56 47 48 43 40 48 54 55 55 52 47 46 45 39 36 35 33 31 28 24 19 17 18 16 16 17 17 18 19 18 19 19 18 15 12 8 3 4 7 9 6 14 26 21
51 48 51 50 48 48 47 47 48 46 42 41 36 35 34 37 33 27 23 21 19 20 20 18 18 19 18 17 17 20 18 17 19 17 16 16 13 9 8 9 11 14 16 17
44 45 44 45 43 41 39 38 42 40 37 35 34 31 30 30 28 26 25 22 20 21 21 21 22 20 18 16 17 17 21 19 21 17 18 16 14 13 13 14 17 18 21 25
38 37 38 40 38 36 35 34 35 35 33 31 30 29 31 29 29 27 25 23 23 23 23 21 19 18 19 20 18 16 15 16 21 18 19 18 18 21 20 23 20 19 20 28
35 35 35 35 33 34 33 32 32 31 31 30 29 30 33 32 32 27 25 24 25 24 22 21 20 21 18 19 18 17 18 17 19 20 19 18 17 18 18 19 19 18 18 23
34 36 35 33 30 31 30 29 30 29 29 28 31 35 33 32 28 25 22 22 22 22 22 19 30 23 21 25 25 20 20 19 20 18 17 19 18 19 19 19 21 22 21 21
33 33 32 30 28 27 29 26 28 29 29 28 28 31 32 31 25 23 22 26 23 20 16 18 17 19 20 23 29 20 22 22 21 20 22 19 19 20 20 24 23 20 21 23
29 28 27 27 27 25 24 24 26 28 27 26 31 31 31 25 21 18 15 17 18 21 24 22 18 18 18 19 21 19 20 19 17 19 17 19 21 21 23 24 23 23 22 23
25 25 26 25 25 26 23 23 25 28 28 28 29 29 30 28 22 19 18 20 16 25 15 16 18 20 19 23 19 18 17 16 17 16 17 20 20 20 20 21 21 21 22 23
25 26 26 25 25 26 26 24 24 25 27 25 25 23 19 18 19 14 14 14 12 22 12 13 15 15 19 17 16 16 17 17 16 16 20 20 21 22 22 22 22 22 21 23
28 27 28 28 28 24 24 26 22 26 23 23 21 17 16 17 14 14 15 13 13 13 8 11 12 12 19 12 14 14 15 17 16 17 17 20 18 18 21 21 21 22 22 24
26 27 27 26 25 21 24 24 23 23 22 21 19 15 12 9 9 12 10 8 11 14 4 10 12 14 10 9 10 13 14 15 17 19 18 17 17 18 20 21 23 26 24 25
25 22 21 18 20 20 20 18 18 19 19 19 16 13 11 11 13 12 9 10 4 10 5 5 4 7 9 8 9 10 12 16 17 19 19 20 21 20 20 22 23 24 25 26
20 21 19 17 16 16 16 16 17 18 17 16 15 13 12 14 13 11 10 7 7 7 7 7 6 10 8 9 9 10 11 13 18 20 20 21 22 24 24 25 25 25 26 27
Wind_Direction_500mb
290 149 168 189 189 190 190 206 187 139 148 146 143 140 136 132 129 125 120 117 113 109 107 103 99 94 89 83 78 75 69 51 19 351 337 332 331 328 326 330 333 334 338 334
153 140 177 174 179 190 193 175 163 145 130 133 131 130 132 135 135 127 123 120 115 110 106 101 94 87 82 77 67 49 31 15 356 345 347 340 333 336 337 345 339 338 344 337
131 136 147 180 176 181 149 254 150 149 130 130 131 133 135 136 129 127 125 119 113 105 100 92 84 75 62 46 30 18 14 2 351 344 343 342 344 339 343 349 334 0 346 337
132 131 140 139 193 178 173 97 95 113 135 130 125 122 126 132 130 127 124 115 107 102 95 83 74 62 44 31 20 19 18 6 1 351 336 341 333 333 354 346 356 359 341 349
135 134 110 114 156 175 154 83 122 130 125 123 118 108 90 125 129 124 116 113 110 99 89 78 62 50 42 32 26 28 17 3 346 332 336 338 335 348 346 352 356 356 347 349
145 114 125 95 49 12 122 108 158 147 147 143 146 142 141 131 125 120 115 115 112 107 84 74 56 48 49 41 32 22 3 351 343 340 340 332 325 339 339 350 352 352 354 352
87 97 70 360 330 306 195 142 137 140 142 154 167 124 138 133 120 113 112 105 103 95 86 60 56 62 57 44 18 359 354 339 351 336 341 327 337 337 322 0 1 6 6 12
340 105 100 347 318 279 91 132 137 144 144 121 117 123 129 126 120 117 111 106 101 94 80 72 74 60 47 28 6 357 348 337 339 339 336 312 331 336 329 15 3 16 22 20
26 57 12 2 46 97 126 126 127 128 132 128 126 126 127 122 119 119 115 102 91 87 84 77 67 65 42 21 10 1 356 349 350 338 351 325 339 349 359 6 9 7 9 14
161 31 33 47 57 89 107 112 115 118 122 125 123 123 118 116 112 107 101 97 92 86 80 70 59 47 32 28 10 5 0 351 311 206 104 9 355 8 351 341 355 354 355 2
86 113 78 48 75 94 102 104 107 110 115 116 118 113 114 113 107 103 98 95 96 95 82 69 53 40 25 29 21 15 16 7 342 236 191 82 253 215 357 321 334 339 344 350
61 71 99 70 89 102 102 105 106 108 102 102 105 108 113 107 106 105 102 102 100 95 85 67 55 40 29 26 32 34 37 13 17 2 230 190 157 313 283 306 320 327 332 337
87 97 97 97 93 100 98 97 97 99 103 106 105 107 107 108 107 107 102 103 102 94 80 66 57 41 29 30 30 34 35 36 35 35 44 193 7 282 217 330 334 330 317 317
89 89 77 83 90 92 98 101 103 104 107 109 108 106 105 104 107 104 97 90 83 84 74 66 56 45 36 33 35 27 40 43 43 42 46 48 7 296 283 273 290 323 327 318
91 97 102 104 103 102 102 105 105 104 103 101 101 104 108 108 104 97 93 89 84 77 69 63 54 43 37 34 37 34 42 46 42 43 50 54 40 34 24 5 350 341 335 329
104 103 104 102 104 105 107 107 104 103 104 105 105 103 101 98 98 94 87 83 86 76 66 58 51 42 38 37 40 39 27 42 43 38 39 49 52 46 37 32 23 20 15 18
109 107 107 104 105 106 105 106 107 109 111 112 111 113 111 102 99 93 87 80 73 66 62 57 53 45 45 46 46 42 38 31 47 46 41 40 36 36 35 33 28 20 17 16
97 101 104 107 108 106 104 104 105 107 109 114 115 116 117 114 101 90 84 79 77 72 63 57 64 48 52 58 52 53 52 45 50 48 47 42 46 37 35 34 31 26 18 3
90 95 99 102 106 106 106 107 107 106 108 114 119 115 112 100 92 90 84 78 75 69 55 55 63 56 52 79 73 57 56 53 51 51 45 45 40 40 41 43 33 27 21 17
88 89 95 100 102 105 107 108 109 110 110 111 115 116 112 106 100 95 88 78 69 71 64 70 60 64 59 70 71 52 58 53 53 50 46 46 48 44 39 37 40 27 21 21
99 101 103 103 101 101 105 109 112 113 115 115 120 115 107 90 89 93 89 84 77 74 63 66 72 59 64 65 56 57 55 55 49 48 51 44 35 35 32 32 27 21 20 18
108 105 106 106 106 105 105 111 116 118 118 116 119 115 109 106 102 100 103 91 80 88 74 66 75 77 79 68 62 63 54 53 49 45 45 40 38 33 29 26 21 15 12 11
112 111 108 109 112 112 112 111 120 129 128 127 122 116 114 114 113 120 107 95 84 91 69 73 80 76 72 57 57 53 62 55 43 35 37 37 28 23 24 15 13 6 4 3
116 113 110 109 107 106 114 114 121 131 135 129 120 125 124 122 112 100 108 105 87 85 85 59 63 69 75 49 57 58 48 45 44 40 34 26 22 14 9 8 3 357 355 354
124 122 118 116 111 114 117 120 127 134 135 134 133 124 117 128 141 132 127 115 84 88 17 45 56 64 65 58 50 35 36 29 27 28 26 23 16 10 3 359 355 356 355 347
141 135 131 123 126 118 116 118 134 140 142 141 141 138 134 135 145 132 141 129 98 87 83 57 67 58 52 57 42 31 22 12 14 7 9 4 6 3 356 353 347 343 340 338
147 142 143 140 138 131 125 129 131 138 138 142 145 143 145 144 157 142 125 109 109 99 82 78 60 51 50 52 17 18 6 359 352 355 352 351 349 350 350 345 340 336 332 330
Wind_Speed_850mb
18 36 48 56 57 53 33 25 29 41 45 41 40 40 48 59 60 60 56 51 49 47 44 41 36 33 29 26 22 18 15 11 10 12 14 16 19 20 20 19 16 18 19 20
20 33 46 52 50 44 32 3 13 50 42 37 50 59 54 54 58 58 54 50 47 44 39 35 30 26 22 18 15 13 13 14 14 14 15 17 20 18 14 13 16 16 17 18
14 43 26 25 47 46 22 5 35 46 36 49 40 39 48 54 51 51 49 46 41 37 32 27 23 20 18 15 15 14 14 14 14 15 15 16 14 12 11 11 13 16 17 19
24 24 8 20 30 33 13 17 16 47 43 43 47 54 50 45 49 46 42 41 35 29 25 21 18 16 15 15 14 14 15 15 15 13 12 12 8 7 8 9 13 18 22 23
10 11 36 23 40 36 22 7 35 50 46 65 66 68 40 39 41 41 36 32 26 24 20 18 15 14 13 14 13 13 14 15 14 12 10 8 7 7 9 10 14 19 21 21
21 17 7 22 22 17 10 7 23 53 59 60 75 25 16 38 40 38 31 26 25 21 19 15 12 12 13 14 12 12 13 15 13 10 8 7 6 7 10 11 13 17 17 17
16 9 12 22 31 15 20 18 38 58 61 61 19 35 58 46 40 33 29 23 20 18 12 11 9 10 12 11 9 12 13 12 11 8 8 6 7 8 9 10 11 16 18 16
6 10 10 47 18 4 12 54 60 62 55 56 72 70 56 47 39 33 31 24 18 14 12 11 11 15 15 13 13 13 10 9 9 10 7 4 7 8 8 8 11 17 22 15
12 7 10 23 20 27 40 57 57 58 60 70 66 62 50 45 35 30 25 21 17 15 15 15 15 14 13 13 14 12 11 9 8 7 7 4 6 7 7 7 12 17 23 27
5 19 25 31 45 43 47 55 56 56 58 61 69 55 49 41 34 30 26 23 20 19 17 16 15 15 13 12 14 12 9 9 6 3 4 2 3 6 5 8 13 17 22 26
13 16 31 43 40 46 57 59 64 61 66 64 62 55 44 40 34 30 27 24 21 20 19 17 16 16 14 14 14 12 13 11 7 4 6 5 6 2 6 9 16 22 24 27
7 26 36 26 42 46 64 72 74 74 63 54 52 47 40 39 34 29 26 24 24 22 20 17 15 14 15 17 17 16 11 11 9 4 4 6 2 4 12 18 19 23 25 29
16 59 65 64 62 58 72 68 57 55 51 53 45 41 39 38 32 32 29 25 23 20 17 15 15 16 17 17 18 18 17 14 12 8 3 2 3 4 2 20 24 26 25 27
56 47 48 43 40 48 54 55 55 52 47 46 45 39 36 35 33 31 28 24 19 17 18 16 16 17 17 18 19 18 19 19 18 15 12 8 3 4 7 9 6 14 26 21
51 48 51 50 48 48 47 47 48 46 42 41 36 35 34 37 33 27 23 21 19 20 20 18 18 19 18 17 17 20 18 17 19 17 16 16 13 9 8 9 11 14 16 17
44 45 44 45 43 41 39 38 42 40 37 35 34 31 30 30 28 26 25 22 20 21 21 21 22 20 18 16 17 17 21 19 21 17 18 16 14 13 13 14 17 18 21 25
38 37 38 40 38 36 35 34 35 35 33 31 30 29 31 29 29 27 25 23 23 23 23 21 19 18 19 20 18 16 15 16 21 18 19 18 18 21 20 23 20 19 20 28
35 35 35 35 33 34 33 32 32 31 31 30 29 30 33 32 32 27 25 24 25 24 22 21 20 21 18 19 18 17 18 17 19 20 19 18 17 18 18 19 19 18 18 23
34 36 35 33 30 31 30 29 30 29 29 28 31 35 33 32 28 25 22 22 22 22 22 19 30 23 21 25 25 20 20 19 20 18 17 19 18 19 19 19 21 22 21 21
33 33 32 30 28 27 29 26 28 29 29 28 28 31 32 31 25 23 22 26 23 20 16 18 17 19 20 23 29 20 22 22 21 20 22 19 19 20 20 24 23 20 21 23
29 28 27 27 27 25 24 24 26 28 27 26 31 31 31 25 21 18 15 17 18 21 24 22 18 18 18 19 21 19 20 19 17 19 17 19 21 21 23 24 23 23 22 23
25 25 26 25 25 26 23 23 25 28 28 28 29 29 30 28 22 19 18 20 16 25 15 16 18 20 19 23 19 18 17 16 17 16 17 20 20 20 20 21 21 21 22 23
25 26 26 25 25 26 26 24 24 25 27 25 25 23 19 18 19 14 14 14 12 22 12 13 15 15 19 17 16 16 17 17 16 16 20 20 21 22 22 22 22 22 21 23
28 27 28 28 28 24 24 26 22 26 23 23 21 17 16 17 14 14 15 13 13 13 8 11 12 12 19 12 14 14 15 17 16 17 17 20 18 18 21 21 21 22 22 24
26 27 27 26 25 21 24 24 23 23 22 21 19 15 12 9 9 12 10 8 11 14 4 10 12 14 10 9 10 13 14 15 17 19 18 17 17 18 20 21 23 26 24 25
25 22 21 18 20 20 20 18 18 19 19 19 16 13 11 11 13 12 9 10 4 10 5 5 4 7 9 8 9 10 12 16 17 19 19 20 21 20 20 22 23 24 25 26
20 21 19 17 16 16 16 16 17 18 17 16 15 13 12 14 13 11 10 7 7 7 7 7 6 10 8 9 9 10 11 13 18 20 20 21 22 24 24 25 25 25 26 27
Wind_Direction_850mb
290 149 168 189 189 190 190 206 187 139 148 146 143 140 136 132 129 125 120 117 113 109 107 103 99 94 89 83 78 75 69 51 19 351 337 332 331 328 326 330 333 334 338 334
153 140 177 174 179 190 193 175 163 145 130 133 131 130 132 135 135 127 123 120 115 110 106 101 94 87 82 77 67 49 31 15 356 345 347 340 333 336 337 345 339 338 344 337
131 136 147 180 176 181 149 254 150 149 130 130 131 133 135 136 129 127 125 119 113 105 100 92 84 75 62 46 30 18 14 2 351 344 343 342 344 339 343 349 334 0 346 337
132 131 140 139 193 178 173 97 95 113 135 130 125 122 126 132 130 127 124 115 107 102 95 83 74 62 44 31 20 19 18 6 1 351 336 341 333 333 354 346 356 359 341 349
135 134 110 114 156 175 154 83 122 130 125 123 118 108 90 125 129 124 116 113 110 99 89 78 62 50 42 32 26 28 17 3 346 332 336 338 335 348 346 352 356 356 347 349
145 114 125 95 49 12 122 108 158 147 147 143 146 142 141 131 125 120 115 115 112 107 84 74 56 48 49 41 32 22 3 351 343 340 340 332 325 339 339 350 352 352 354 352
87 97 70 360 330 306 195 142 137 140 142 154 167 124 138 133 120 113 112 105 103 95 86 60 56 62 57 44 18 359 354 339 351 336 341 327 337 337 322 0 1 6 6 12
340 105 100 347 318 279 91 132 137 144 144 121 117 123 129 126 120 117 111 106 101 94 80 72 74 60 47 28 6 357 348 337 339 339 336 312 331 336 329 15 3 16 22 20
26 57 12 2 46 97 126 126 127 128 132 128 126 126 127 122 119 119 115 102 91 87 84 77 67 65 42 21 10 1 356 349 350 338 351 325 339 349 359 6 9 7 9 14
161 31 33 47 57 89 107 112 115 118 122 125 123 123 118 116 112 107 101 97 92 86 80 70 59 47 32 28 10 5 0 351 311 206 104 9 355 8 351 341 355 354 355 2
86 113 78 48 75 94 102 104 107 110 115 116 118 113 114 113 107 103 98 95 96 95 82 69 53 40 25 29 21 15 16 7 342 236 191 82 253 215 357 321 334 339 344 350
61 71 99 70 89 102 102 105 106 108 102 102 105 108 113 107 106 105 102 102 100 95 85 67 55 40 29 26 32 34 37 13 17 2 230 190 157 313 283 306 320 327 332 337
87 97 97 97 93 100 98 97 97 99 103 106 105 107 107 108 107 107 102 103 102 94 80 66 57 41 29 30 30 34 35 36 35 35 44 193 7 282 217 330 334 330 317 317
89 89 77 83 90 92 98 101 103 104 107 109 108 106 105 104 107 104 97 90 83 84 74 66 56 45 36 33 35 27 40 43 43 42 46 48 7 296 283 273 290 323 327 318
91 97 102 104 103 102 102 105 105 104 103 101 101 104 108 108 104 97 93 89 84 77 69 63 54 43 37 34 37 34 42 46 42 43 50 54 40 34 24 5 350 341 335 329
104 103 104 102 104 105 107 107 104 103 104 105 105 103 101 98 98 94 87 83 86 76 66 58 51 42 38 37 40 39 27 42 43 38 39 49 52 46 37 32 23 20 15 18
109 107 107 104 105 106 105 106 107 109 111 112 111 113 111 102 99 93 87 80 73 66 62 57 53 45 45 46 46 42 38 31 47 46 41 40 36 36 35 33 28 20 17 16
97 101 104 107 108 106 104 104 105 107 109 114 115 116 117 114 101 90 84 79 77 72 63 57 64 48 52 58 52 53 52 45 50 48 47 42 46 37 35 34 31 26 18 3
90 95 99 102 106 106 106 107 107 106 108 114 119 115 112 100 92 90 84 78 75 69 55 55 63 56 52 79 73 57 56 53 51 51 45 45 40 40 41 43 33 27 21 17
88 89 95 100 102 105 107 108 109 110 110 111 115 116 112 106 100 95 88 78 69 71 64 70 60 64 59 70 71 52 58 53 53 50 46 46 48 44 39 37 40 27 21 21
99 101 103 103 101 101 105 109 112 113 115 115 120 115 107 90 89 93 89 84 77 74 63 66 72 59 64 65 56 57 55 55 49 48 51 44 35 35 32 32 27 21 20 18
108 105 106 106 106 105 105 111 116 118 118 116 119 115 109 106 102 100 103 91 80 88 74 66 75 77 79 68 62 63 54 53 49 45 45 40 38 33 29 26 21 15 12 11
112 111 108 109 112 112 112 111 120 129 128 127 122 116 114 114 113 120 107 95 84 91 69 73 80 76 72 57 57 53 62 55 43 35 37 37 28 23 24 15 13 6 4 3
116 113 110 109 107 106 114 114 121 131 135 129 120 125 124 122 112 100 108 105 87 85 85 59 63 69 75 49 57 58 48 45 44 40 34 26 22 14 9 8 3 357 355 354
124 122 118 116 111 114 117 120 127 134 135 134 133 124 117 128 141 132 127 115 84 88 17 45 56 64 65 58 50 35 36 29 27 28 26 23 16 10 3 359 355 356 355 347
141 135 131 123 126 118 116 118 134 140 142 141 141 138 134 135 145 132 141 129 98 87 83 57 67 58 52 57 42 31 22 12 14 7 9 4 6 3 356 353 347 343 340 338
147 142 143 140 138 131 125 129 131 138 138 142 145 143 145 144 157 142 125 109 109 99 82 78 60 51 50 52 17 18 6 359 352 355 352 351 349 350 350 345 340 336 332 330